Overview Statistics Trail Chart Weather Telemetry Raw packets
 

This is the latest recevied weather packets stored in our database for station/object OE6PWE-13. If no packets are shown the sender has not sent any weather packets the latest 10 day(s).

<< 14 15 16 17 18 19 20 >>
Time Temp. Humidity Pressure Rain* Wind** Luminosity Snow
1788358512 27.78° C 57% 1017 hPa 0 mm - - -
1788357611 28.33° C 57% 1017 hPa 0 mm - - -
1788356712 27.78° C 54% 1018 hPa 0 mm - - -
1788355811 28.33° C 56% 1018 hPa 0 mm - - -
1788354912 27.22° C 55% 1018 hPa 0 mm - - -
1788354011 27.78° C 56% 1018 hPa 0 mm - - -
1788353112 27.22° C 53% 1018 hPa 0 mm - - -
1788352211 26.11° C 58% 1019 hPa 0 mm - - -
1788351311 26.67° C 56% 1019 hPa 0 mm - - -
1788350411 26.67° C 57% 1019 hPa 0 mm - - -
1788349511 26.11° C 62% 1019 hPa 0 mm - - -
1788348612 26.11° C 60% 1019 hPa 0 mm - - -
1788347711 26.11° C 65% 1020 hPa 0 mm - - -
1788346812 25.56° C 63% 1020 hPa 0 mm - - -
1788345911 25° C 65% 1020 hPa 0 mm - - -
1788345012 25° C 65% 1020 hPa 0 mm - - -
1788344112 25° C 67% 1020 hPa 0 mm - - -
1788343212 25° C 70% 1021 hPa 0 mm - - -
1788342311 23.33° C 75% 1021 hPa 0 mm - - -
1788341411 22.78° C 74% 1021 hPa 0 mm - - -
1788340511 22.22° C 76% 1021 hPa 0 mm - - -
1788339612 21.11° C 80% 1021 hPa 0 mm - - -
1788338711 18.89° C 96% 1022 hPa 0 mm - - -
1788337812 17.78° C 99% 1022 hPa 0 mm - - -
1788336911 17.22° C 99% 1022 hPa 0 mm - - -

* Rain latest hour (hover to see other rain measurements)
** Current wind speed in m/s (hover to see current wind gust speed)